WXM80 ListenWXM80 Stop

You find our weather info also at:

UK Metoffice

WeatherCloud

Weather Underground

Northeastern Weather Network

AWEKAS

Citizen Weather Observer Program (CWOP)

HAMweather, WeatherForYou, PWS Weather


Weather Underground History page Text

Daily Summary for September 11, 2016 Units:  English    Metric   Both
« Previous Day
Next Day »
Daily Weekly Monthly Yearly Custom
  High: Low: Average:
Temperature: 84.7 °F 68.2 °F 77.9 °F
Dew Point: 75.6 °F 51.1 °F 65.6 °F
Humidity: 92 % 44 % 68 %
Wind Speed: 9.4 mph 0.0 mph 3.1 mph
Wind Gust: 16.1 mph - -
Wind:- - SW
Pressure: 30.13 in 29.82 in -
Precipitation: 0.00 in    
Historical Graphs
 
 
Tabular Data for September 11, 2016
Time Temperature Dew Point Pressure Wind Wind Speed Wind Gust Humidity Rainfall Rate (Hourly)
00:00 77.0 °F 72.8 °F 29.91 in South 0.9 mph 3.5 mph 87 % 0.00 in
00:05 76.9 °F 72.7 °F 29.91 in SSW 1.3 mph 3.5 mph 87 % 0.00 in
00:10 76.8 °F 72.6 °F 29.91 in SW 1.6 mph 3.5 mph 87 % 0.00 in
00:15 76.8 °F 72.6 °F 29.91 in SSW 1.0 mph 4.6 mph 87 % 0.00 in
00:20 76.7 °F 72.5 °F 29.91 in South 1.4 mph 3.5 mph 87 % 0.00 in
00:25 76.7 °F 72.5 °F 29.90 in South 0.3 mph 2.3 mph 87 % 0.00 in
00:30 76.7 °F 72.5 °F 29.90 in SSE 0.9 mph 2.3 mph 87 % 0.00 in
00:35 76.6 °F 72.4 °F 29.90 in SSW 1.5 mph 4.6 mph 87 % 0.00 in
00:41 76.6 °F 72.4 °F 29.89 in Calm   3.0 mph 87 % 0.00 in
00:46 76.6 °F 72.4 °F 29.89 in SSE 1.0 mph 5.0 mph 87 % 0.00 in
00:51 76.5 °F 72.4 °F 29.89 in South 2.0 mph 6.0 mph 87 % 0.00 in
00:56 76.5 °F 72.3 °F 29.89 in SSW 1.0 mph 6.0 mph 87 % 0.00 in
01:01 76.5 °F 72.3 °F 29.89 in SSE 2.8 mph 5.8 mph 87 % 0.00 in
01:11 76.4 °F 72.3 °F 29.89 in South 2.0 mph 8.0 mph 87 % 0.00 in
01:16 76.4 °F 72.2 °F 29.89 in Calm   7.0 mph 87 % 0.00 in
01:21 76.3 °F 72.2 °F 29.88 in South 2.0 mph 4.0 mph 87 % 0.00 in
01:26 76.3 °F 72.5 °F 29.88 in SSE 1.0 mph 4.0 mph 88 % 0.00 in
01:31 76.2 °F 72.4 °F 29.88 in ESE 2.2 mph 5.0 mph 88 % 0.00 in
01:36 76.1 °F 72.3 °F 29.88 in South 1.0 mph 6.0 mph 88 % 0.00 in
01:41 76.1 °F 72.3 °F 29.88 in South 1.0 mph 4.0 mph 88 % 0.00 in
01:46 76.0 °F 72.2 °F 29.88 in SSE 0.9 mph 3.5 mph 88 % 0.00 in
01:51 76.0 °F 72.2 °F 29.87 in South 1.0 mph 5.0 mph 88 % 0.00 in
01:56 76.0 °F 72.2 °F 29.87 in SSE 2.0 mph 7.0 mph 88 % 0.00 in
02:01 76.0 °F 72.2 °F 29.87 in SSE 0.8 mph 4.0 mph 88 % 0.00 in
02:06 76.0 °F 72.2 °F 29.86 in South 2.0 mph 9.0 mph 88 % 0.00 in
02:11 75.9 °F 72.4 °F 29.86 in South 2.0 mph 10.0 mph 89 % 0.00 in
02:16 75.9 °F 72.4 °F 29.86 in South 2.0 mph 7.0 mph 89 % 0.00 in
02:21 75.9 °F 72.4 °F 29.86 in South 2.0 mph 8.0 mph 89 % 0.00 in
02:26 75.8 °F 72.4 °F 29.86 in South 2.0 mph 9.0 mph 89 % 0.00 in
02:31 75.8 °F 72.3 °F 29.85 in SSE 5.0 mph 10.0 mph 89 % 0.00 in
02:36 75.8 °F 72.3 °F 29.86 in SSE 2.0 mph 10.0 mph 89 % 0.00 in
02:41 75.7 °F 72.6 °F 29.85 in SSE 2.0 mph 6.0 mph 90 % 0.00 in
02:46 75.7 °F 72.6 °F 29.85 in SSE 1.0 mph 6.0 mph 90 % 0.00 in
02:51 75.7 °F 72.6 °F 29.85 in South 2.0 mph 5.0 mph 90 % 0.00 in
02:56 75.6 °F 72.5 °F 29.85 in South 3.0 mph 8.0 mph 90 % 0.00 in
03:01 75.6 °F 72.5 °F 29.84 in SSE 2.2 mph 7.0 mph 90 % 0.00 in
03:06 75.6 °F 72.5 °F 29.84 in SW 0.7 mph 5.0 mph 90 % 0.00 in
03:11 75.5 °F 72.4 °F 29.84 in South 1.7 mph 4.6 mph 90 % 0.00 in
03:16 75.5 °F 72.4 °F 29.84 in SSW 2.4 mph 4.0 mph 90 % 0.00 in
03:21 75.5 °F 72.4 °F 29.84 in SSW 3.5 mph 10.4 mph 90 % 0.00 in
03:26 75.5 °F 72.4 °F 29.84 in South 1.8 mph 4.6 mph 90 % 0.00 in
03:31 75.5 °F 72.4 °F 29.83 in SSW 1.4 mph 6.9 mph 90 % 0.00 in
03:36 75.5 °F 72.4 °F 29.83 in South 4.2 mph 10.4 mph 90 % 0.00 in
03:42 75.5 °F 72.4 °F 29.83 in SE 2.9 mph 6.0 mph 90 % 0.00 in
03:47 75.5 °F 72.7 °F 29.83 in WSW 2.5 mph 5.8 mph 91 % 0.00 in
03:52 75.5 °F 72.7 °F 29.84 in South 2.7 mph 8.1 mph 91 % 0.00 in
03:57 75.5 °F 72.7 °F 29.83 in SSE 1.9 mph 4.6 mph 91 % 0.00 in
04:02 75.5 °F 72.7 °F 29.83 in SSW 2.8 mph 8.1 mph 91 % 0.00 in
04:07 75.5 °F 72.7 °F 29.83 in SSW 3.2 mph 5.8 mph 91 % 0.00 in
04:12 75.5 °F 72.7 °F 29.83 in SSW 4.1 mph 8.1 mph 91 % 0.00 in
04:17 75.5 °F 72.7 °F 29.83 in SW 2.3 mph 4.6 mph 91 % 0.00 in
04:22 75.5 °F 72.7 °F 29.83 in SSE 2.2 mph 9.2 mph 91 % 0.00 in
04:27 75.5 °F 72.7 °F 29.83 in SSW 1.4 mph 4.6 mph 91 % 0.00 in
04:32 75.5 °F 72.7 °F 29.82 in South 2.8 mph 8.1 mph 91 % 0.00 in
04:37 75.5 °F 72.7 °F 29.82 in SE 1.9 mph 4.6 mph 91 % 0.00 in
04:43 75.4 °F 72.6 °F 29.82 in SW 3.3 mph 8.1 mph 91 % 0.00 in
04:48 75.4 °F 72.6 °F 29.83 in South 2.6 mph 9.2 mph 91 % 0.00 in
04:58 75.4 °F 72.6 °F 29.83 in SW 1.2 mph 4.0 mph 91 % 0.00 in
05:03 75.4 °F 72.9 °F 29.83 in SSE 2.3 mph 5.8 mph 92 % 0.00 in
05:08 75.4 °F 72.9 °F 29.83 in SSW 2.5 mph 5.8 mph 92 % 0.00 in
05:13 75.4 °F 72.9 °F 29.83 in South 1.1 mph 3.5 mph 92 % 0.00 in
05:18 75.5 °F 73.0 °F 29.84 in SSW 1.9 mph 11.5 mph 92 % 0.00 in
05:23 75.5 °F 73.0 °F 29.83 in SSW 3.8 mph 6.9 mph 92 % 0.00 in
05:28 75.5 °F 73.0 °F 29.83 in SSW 1.6 mph 5.0 mph 92 % 0.00 in
05:33 75.5 °F 73.0 °F 29.83 in SSW 1.1 mph 2.3 mph 92 % 0.00 in
05:39 75.5 °F 73.0 °F 29.83 in SSW 1.1 mph 4.6 mph 92 % 0.00 in
05:44 75.5 °F 73.0 °F 29.83 in South 1.3 mph 2.3 mph 92 % 0.00 in
05:49 75.6 °F 73.1 °F 29.83 in SSW 3.2 mph 5.8 mph 92 % 0.00 in
05:54 75.6 °F 73.1 °F 29.83 in WSW 0.5 mph 2.3 mph 92 % 0.00 in
05:59 75.6 °F 73.1 °F 29.83 in SSW 3.2 mph 5.0 mph 92 % 0.00 in
06:04 75.6 °F 73.1 °F 29.83 in South 1.4 mph 3.5 mph 92 % 0.00 in
06:09 75.6 °F 73.1 °F 29.83 in South 2.6 mph 5.8 mph 92 % 0.00 in
06:14 75.6 °F 73.1 °F 29.83 in SSW 4.4 mph 9.2 mph 92 % 0.00 in
06:19 75.6 °F 73.1 °F 29.83 in WSW 2.4 mph 5.8 mph 92 % 0.00 in
06:24 75.6 °F 73.1 °F 29.84 in SW 3.5 mph 11.5 mph 92 % 0.00 in
06:30 75.6 °F 73.1 °F 29.83 in SSW 2.7 mph 3.5 mph 92 % 0.00 in
06:35 75.7 °F 73.2 °F 29.83 in SW 2.2 mph 4.6 mph 92 % 0.00 in
06:40 75.7 °F 73.2 °F 29.83 in SSW 1.6 mph 4.6 mph 92 % 0.00 in
06:45 75.8 °F 73.3 °F 29.83 in South 0.9 mph 3.5 mph 92 % 0.00 in
06:50 75.8 °F 73.3 °F 29.84 in WSW 1.6 mph 3.5 mph 92 % 0.00 in
06:55 75.9 °F 73.4 °F 29.83 in West 0.7 mph 3.5 mph 92 % 0.00 in
07:00 76.0 °F 73.5 °F 29.83 in SSE 0.6 mph 2.3 mph 92 % 0.00 in
07:05 76.0 °F 73.5 °F 29.83 in SSW 2.4 mph 4.0 mph 92 % 0.00 in
07:10 76.1 °F 73.6 °F 29.83 in SW 2.6 mph 4.6 mph 92 % 0.00 in
07:15 76.2 °F 73.7 °F 29.83 in SW 1.2 mph 3.5 mph 92 % 0.00 in
07:20 76.2 °F 73.4 °F 29.84 in SW 3.0 mph 3.5 mph 91 % 0.00 in
07:25 76.2 °F 73.4 °F 29.84 in SW 1.5 mph 3.5 mph 91 % 0.00 in
07:31 76.3 °F 73.8 °F 29.85 in SW 1.0 mph 6.0 mph 92 % 0.00 in
07:36 76.4 °F 73.6 °F 29.84 in SW 2.8 mph 5.8 mph 91 % 0.00 in
07:41 76.4 °F 73.6 °F 29.84 in SW 1.0 mph 6.0 mph 91 % 0.00 in
07:46 76.5 °F 73.7 °F 29.84 in Calm   5.0 mph 91 % 0.00 in
07:51 76.6 °F 73.8 °F 29.84 in SE 1.8 mph 3.5 mph 91 % 0.00 in
07:56 76.6 °F 73.8 °F 29.84 in South 2.0 mph 6.0 mph 91 % 0.00 in
08:01 76.7 °F 73.9 °F 29.85 in WSW 1.0 mph 2.0 mph 91 % 0.00 in
08:06 76.8 °F 74.0 °F 29.84 in SSW 1.6 mph 3.5 mph 91 % 0.00 in
08:11 76.8 °F 73.6 °F 29.85 in WSW 1.2 mph 8.1 mph 90 % 0.00 in
08:16 76.9 °F 73.7 °F 29.85 in WSW 0.7 mph 3.5 mph 90 % 0.00 in
08:21 77.0 °F 73.8 °F 29.85 in SSW 3.8 mph 4.6 mph 90 % 0.00 in
08:26 77.2 °F 74.0 °F 29.85 in SSW 0.9 mph 3.0 mph 90 % 0.00 in
08:31 77.3 °F 74.1 °F 29.85 in SW 2.2 mph 4.6 mph 90 % 0.00 in
08:36 77.5 °F 74.3 °F 29.85 in SW 1.5 mph 5.8 mph 90 % 0.00 in
08:41 77.6 °F 74.4 °F 29.85 in SW 0.5 mph 2.3 mph 90 % 0.00 in
08:46 77.8 °F 74.3 °F 29.85 in SSW 4.2 mph 4.2 mph 89 % 0.00 in
08:52 78.0 °F 74.5 °F 29.85 in WSW 1.5 mph 6.9 mph 89 % 0.00 in
08:57 78.2 °F 74.7 °F 29.85 in WSW 4.6 mph 8.1 mph 89 % 0.00 in
09:02 78.4 °F 74.9 °F 29.86 in West 4.2 mph 6.9 mph 89 % 0.00 in
09:04 78.5 °F 75.0 °F 29.86 in SW 3.9 mph 5.8 mph 89 % 0.00 in
09:09 78.7 °F 74.8 °F 29.86 in SW 4.4 mph 6.9 mph 88 % 0.00 in
09:14 78.9 °F 74.7 °F 29.85 in WSW 3.7 mph 5.8 mph 87 % 0.00 in
09:19 79.2 °F 75.0 °F 29.86 in WSW 5.9 mph 9.2 mph 87 % 0.00 in
09:24 79.4 °F 75.2 °F 29.86 in SW 5.4 mph 6.0 mph 87 % 0.00 in
09:29 79.6 °F 75.0 °F 29.87 in SW 2.1 mph 5.8 mph 86 % 0.00 in
09:34 79.8 °F 75.2 °F 29.87 in West 2.8 mph 8.0 mph 86 % 0.00 in
09:39 80.1 °F 75.5 °F 29.87 in WSW 3.1 mph 8.1 mph 86 % 0.00 in
09:45 80.3 °F 75.4 °F 29.87 in WSW 4.6 mph 8.1 mph 85 % 0.00 in
09:50 80.6 °F 75.3 °F 29.87 in SW 5.7 mph 10.4 mph 84 % 0.00 in
09:55 80.9 °F 75.6 °F 29.87 in NW 0.9 mph 3.5 mph 84 % 0.00 in
10:00 81.1 °F 75.4 °F 29.87 in West 3.9 mph 7.0 mph 83 % 0.00 in
10:05 81.0 °F 74.2 °F 29.89 in NNE 6.8 mph 11.5 mph 80 % 0.00 in
10:10 80.2 °F 68.7 °F 29.89 in WNW 3.9 mph 16.0 mph 68 % 0.00 in
10:15 79.6 °F 67.2 °F 29.89 in ESE 2.7 mph 6.9 mph 66 % 0.00 in
10:20 79.3 °F 67.0 °F 29.90 in WNW 3.9 mph 6.9 mph 66 % 0.00 in
10:25 79.1 °F 66.8 °F 29.90 in WSW 5.0 mph 10.4 mph 66 % 0.00 in
10:30 79.0 °F 67.1 °F 29.90 in WNW 1.9 mph 5.8 mph 67 % 0.00 in
10:35 78.9 °F 66.6 °F 29.90 in WSW 3.2 mph 8.1 mph 66 % 0.00 in
10:41 79.0 °F 65.8 °F 29.91 in WNW 4.3 mph 9.2 mph 64 % 0.00 in
10:46 79.2 °F 65.5 °F 29.91 in West 3.0 mph 13.0 mph 63 % 0.00 in
10:51 79.3 °F 65.2 °F 29.91 in WNW 5.0 mph 12.0 mph 62 % 0.00 in
10:56 79.5 °F 64.4 °F 29.91 in West 6.3 mph 11.5 mph 60 % 0.00 in
11:01 79.7 °F 65.1 °F 29.91 in WNW 6.1 mph 11.5 mph 61 % 0.00 in
11:06 80.1 °F 65.4 °F 29.91 in NW 3.6 mph 10.4 mph 61 % 0.00 in
11:11 80.7 °F 65.0 °F 29.91 in WNW 6.4 mph 11.5 mph 59 % 0.00 in
11:16 81.3 °F 64.6 °F 29.91 in SW 9.4 mph 13.8 mph 57 % 0.00 in
11:21 81.5 °F 63.8 °F 29.92 in WNW 4.1 mph 11.5 mph 55 % 0.00 in
11:26 81.2 °F 63.0 °F 29.92 in SW 6.0 mph 12.7 mph 54 % 0.00 in
11:31 81.0 °F 63.3 °F 29.92 in NW 8.2 mph 12.0 mph 55 % 0.00 in
11:36 81.1 °F 62.9 °F 29.92 in West 5.6 mph 16.1 mph 54 % 0.00 in
11:41 81.3 °F 63.6 °F 29.93 in WNW 5.1 mph 9.0 mph 55 % 0.00 in
11:47 81.4 °F 63.2 °F 29.93 in SW 4.4 mph 13.8 mph 54 % 0.00 in
11:52 81.3 °F 63.1 °F 29.93 in NNW 5.9 mph 12.7 mph 54 % 0.00 in
11:57 81.1 °F 62.9 °F 29.93 in NNW 7.0 mph 11.5 mph 54 % 0.00 in
12:02 81.0 °F 62.8 °F 29.93 in West 5.0 mph 11.5 mph 54 % 0.00 in
12:07 81.0 °F 62.8 °F 29.93 in WNW 4.4 mph 8.1 mph 54 % 0.00 in
12:12 81.3 °F 63.1 °F 29.93 in NW 3.2 mph 5.8 mph 54 % 0.00 in
12:17 81.5 °F 61.1 °F 29.93 in North 5.1 mph 9.2 mph 50 % 0.00 in
12:22 81.5 °F 62.7 °F 29.94 in WNW 6.5 mph 11.0 mph 53 % 0.00 in
12:27 81.3 °F 61.4 °F 29.93 in West 6.3 mph 11.5 mph 51 % 0.00 in
12:32 81.9 °F 65.2 °F 29.94 in NW 4.6 mph 8.0 mph 57 % 0.00 in
12:38 82.6 °F 64.3 °F 29.94 in WNW 6.2 mph 13.8 mph 54 % 0.00 in
12:43 82.6 °F 62.6 °F 29.94 in WNW 5.2 mph 13.0 mph 51 % 0.00 in
12:48 82.5 °F 62.0 °F 29.95 in NW 6.0 mph 14.0 mph 50 % 0.00 in
12:53 82.3 °F 61.8 °F 29.95 in West 4.5 mph 13.8 mph 50 % 0.00 in
12:58 82.3 °F 64.0 °F 29.95 in SSW 1.9 mph 5.0 mph 54 % 0.00 in
13:03 82.3 °F 62.4 °F 29.95 in South 4.1 mph 9.0 mph 51 % 0.00 in
13:08 82.1 °F 64.3 °F 29.95 in NW 2.2 mph 6.9 mph 55 % 0.00 in
13:13 82.0 °F 62.6 °F 29.95 in NNW 2.0 mph 8.1 mph 52 % 0.00 in
13:18 82.3 °F 63.5 °F 29.95 in NW 6.0 mph 10.4 mph 53 % 0.00 in
13:23 82.4 °F 63.0 °F 29.95 in NW 5.2 mph 13.8 mph 52 % 0.00 in
13:29 82.6 °F 63.7 °F 29.96 in West 6.3 mph 7.0 mph 53 % 0.00 in
13:34 82.9 °F 63.5 °F 29.95 in North 1.5 mph 6.9 mph 52 % 0.00 in
13:39 82.9 °F 64.5 °F 29.95 in West 3.8 mph 11.5 mph 54 % 0.00 in
13:44 83.3 °F 63.3 °F 29.95 in WNW 5.3 mph 13.8 mph 51 % 0.00 in
13:49 83.5 °F 65.1 °F 29.95 in West 4.4 mph 6.9 mph 54 % 0.00 in
13:54 83.4 °F 65.0 °F 29.95 in WNW 4.1 mph 10.4 mph 54 % 0.00 in
13:59 83.3 °F 64.9 °F 29.95 in SW 0.5 mph 4.6 mph 54 % 0.00 in
14:04 83.4 °F 64.5 °F 29.95 in North 4.0 mph 9.2 mph 53 % 0.00 in
14:09 83.7 °F 66.3 °F 29.95 in NNE 1.7 mph 6.9 mph 56 % 0.00 in
14:14 84.0 °F 63.9 °F 29.95 in NNW 6.6 mph 10.4 mph 51 % 0.00 in
14:20 84.0 °F 64.5 °F 29.95 in NNW 4.5 mph 7.0 mph 52 % 0.00 in
14:25 83.7 °F 64.2 °F 29.95 in NW 3.5 mph 6.9 mph 52 % 0.00 in
14:30 84.0 °F 65.0 °F 29.95 in West 3.5 mph 7.0 mph 53 % 0.00 in
14:35 84.4 °F 64.9 °F 29.95 in NNE 2.7 mph 6.9 mph 52 % 0.00 in
14:40 84.4 °F 63.7 °F 29.95 in NW 3.7 mph 5.8 mph 50 % 0.00 in
14:45 84.2 °F 64.7 °F 29.95 in NNW 2.6 mph 6.0 mph 52 % 0.00 in
14:55 84.4 °F 62.6 °F 29.95 in NW 4.5 mph 7.0 mph 48 % 0.00 in
15:00 84.4 °F 62.0 °F 29.95 in West 4.4 mph 8.1 mph 47 % 0.00 in
15:05 84.5 °F 63.8 °F 29.95 in WNW 2.6 mph 7.0 mph 50 % 0.00 in
15:11 84.5 °F 63.2 °F 29.95 in WNW 1.0 mph 9.0 mph 49 % 0.00 in
15:16 84.5 °F 62.1 °F 29.95 in NW 4.5 mph 10.4 mph 47 % 0.00 in
15:21 84.6 °F 63.3 °F 29.95 in WNW 5.0 mph 7.0 mph 49 % 0.00 in
15:26 84.7 °F 62.8 °F 29.95 in WNW 4.4 mph 8.1 mph 48 % 0.00 in
15:31 84.5 °F 62.1 °F 29.95 in West 3.0 mph 12.0 mph 47 % 0.00 in
15:36 84.4 °F 62.0 °F 29.95 in WNW 3.0 mph 9.0 mph 47 % 0.00 in
15:41 84.1 °F 61.7 °F 29.95 in WNW 3.0 mph 12.0 mph 47 % 0.00 in
15:46 83.8 °F 60.2 °F 29.96 in West 2.0 mph 10.0 mph 45 % 0.00 in
15:51 83.9 °F 61.5 °F 29.95 in WNW 3.0 mph 6.0 mph 47 % 0.00 in
15:56 84.1 °F 62.9 °F 29.95 in WNW 1.0 mph 7.0 mph 49 % 0.00 in
16:01 84.2 °F 61.8 °F 29.95 in NW 0.8 mph 4.0 mph 47 % 0.00 in
16:06 84.2 °F 62.4 °F 29.96 in NW 3.7 mph 8.1 mph 48 % 0.00 in
16:11 84.4 °F 62.0 °F 29.96 in NNW 4.8 mph 8.1 mph 47 % 0.00 in
16:16 84.5 °F 62.1 °F 29.96 in WSW 2.5 mph 9.2 mph 47 % 0.00 in
16:21 84.6 °F 62.7 °F 29.96 in WNW 2.2 mph 7.0 mph 48 % 0.00 in
16:26 84.7 °F 60.4 °F 29.96 in NW 3.2 mph 4.0 mph 44 % 0.00 in
16:31 84.7 °F 61.6 °F 29.96 in WNW 2.0 mph 7.0 mph 46 % 0.00 in
16:36 84.5 °F 62.7 °F 29.96 in WNW 1.0 mph 5.0 mph 48 % 0.00 in
16:41 84.3 °F 63.1 °F 29.96 in NW 4.1 mph 6.9 mph 49 % 0.00 in
16:47 84.1 °F 61.1 °F 29.97 in NW 5.2 mph 5.2 mph 46 % 0.00 in
16:52 84.1 °F 59.8 °F 29.97 in WNW 2.8 mph 6.9 mph 44 % 0.00 in
16:57 83.9 °F 60.9 °F 29.97 in NW 1.3 mph 2.3 mph 46 % 0.00 in
17:02 83.9 °F 62.1 °F 29.97 in NW 3.0 mph 4.6 mph 48 % 0.00 in
17:07 83.7 °F 61.3 °F 29.97 in WNW 1.2 mph 5.8 mph 47 % 0.00 in
17:12 83.4 °F 61.1 °F 29.97 in WNW 2.2 mph 4.6 mph 47 % 0.00 in
17:17 83.3 °F 61.6 °F 29.97 in NW 0.4 mph 2.3 mph 48 % 0.00 in
17:22 83.1 °F 63.1 °F 29.97 in West 0.8 mph 2.3 mph 51 % 0.00 in
17:27 82.7 °F 61.6 °F 29.97 in WNW 2.9 mph 8.1 mph 49 % 0.00 in
17:32 82.4 °F 60.1 °F 29.97 in NW 4.0 mph 6.9 mph 47 % 0.00 in
17:38 82.0 °F 59.2 °F 29.97 in WNW 1.0 mph 4.6 mph 46 % 0.00 in
17:43 81.8 °F 59.6 °F 29.97 in West 1.4 mph 3.5 mph 47 % 0.00 in
17:48 81.5 °F 58.7 °F 29.98 in WNW 4.2 mph 8.1 mph 46 % 0.00 in
17:58 81.1 °F 59.0 °F 29.98 in WNW 0.7 mph 3.5 mph 47 % 0.00 in
18:03 80.9 °F 58.8 °F 29.98 in WNW 2.6 mph 3.5 mph 47 % 0.00 in
18:08 80.7 °F 58.6 °F 29.98 in Calm   1.2 mph 47 % 0.00 in
18:13 80.6 °F 59.7 °F 29.98 in NW 1.2 mph 3.0 mph 49 % 0.00 in
18:18 80.4 °F 59.5 °F 29.98 in WNW 0.5 mph 3.0 mph 49 % 0.00 in
18:23 80.2 °F 59.9 °F 29.98 in Calm   1.2 mph 50 % 0.00 in
18:29 80.0 °F 61.9 °F 29.99 in North 0.9 mph 4.6 mph 54 % 0.00 in
18:34 79.7 °F 61.6 °F 29.99 in NNE 0.9 mph 2.3 mph 54 % 0.00 in
18:39 79.4 °F 61.3 °F 29.99 in Calm   1.2 mph 54 % 0.00 in
18:49 79.0 °F 62.0 °F 29.99 in North 1.9 mph 4.6 mph 56 % 0.00 in
18:54 78.7 °F 62.2 °F 29.99 in WNW 2.6 mph 6.9 mph 57 % 0.00 in
19:04 78.2 °F 60.7 °F 29.99 in WNW 0.8 mph 3.5 mph 55 % 0.00 in
19:09 77.9 °F 59.9 °F 30.00 in West 2.9 mph 3.5 mph 54 % 0.00 in
19:14 77.6 °F 59.1 °F 30.01 in NNE 4.6 mph 8.1 mph 53 % 0.00 in
19:20 77.3 °F 59.4 °F 30.01 in WNW 3.0 mph 5.8 mph 54 % 0.00 in
19:25 77.1 °F 59.2 °F 30.01 in NW 3.2 mph 11.0 mph 54 % 0.00 in
19:30 77.0 °F 59.6 °F 30.01 in NW 2.9 mph 6.9 mph 55 % 0.00 in
19:35 76.9 °F 59.0 °F 30.01 in NW 1.2 mph 4.6 mph 54 % 0.00 in
19:40 76.8 °F 59.4 °F 30.02 in North 3.5 mph 6.9 mph 55 % 0.00 in
19:45 76.6 °F 59.7 °F 30.02 in North 2.4 mph 8.1 mph 56 % 0.00 in
19:50 76.4 °F 59.0 °F 30.03 in NNE 5.8 mph 9.2 mph 55 % 0.00 in
19:55 76.2 °F 59.4 °F 30.03 in North 2.5 mph 5.0 mph 56 % 0.00 in
20:05 75.9 °F 60.1 °F 30.03 in North 2.9 mph 4.6 mph 58 % 0.00 in
20:11 75.7 °F 59.4 °F 30.04 in North 1.0 mph 8.0 mph 57 % 0.00 in
20:16 75.6 °F 59.3 °F 30.05 in North 2.0 mph 7.0 mph 57 % 0.00 in
20:20 75.4 °F 59.6 °F 30.05 in North 1.6 mph 4.6 mph 58 % 0.00 in
20:26 75.3 °F 59.0 °F 30.05 in NNE 5.0 mph 8.0 mph 57 % 0.00 in
20:31 75.1 °F 58.8 °F 30.05 in NNE 5.0 mph 9.0 mph 57 % 0.00 in
20:35 74.9 °F 56.6 °F 30.06 in NNE 6.2 mph 10.4 mph 53 % 0.00 in
20:41 74.8 °F 55.4 °F 30.06 in NNE 5.0 mph 13.0 mph 51 % 0.00 in
20:46 74.6 °F 55.8 °F 30.06 in NNE 5.0 mph 10.0 mph 52 % 0.00 in
20:50 74.4 °F 55.1 °F 30.06 in NE 7.1 mph 10.0 mph 51 % 0.00 in
20:55 74.2 °F 54.4 °F 30.06 in ENE 7.4 mph 10.4 mph 50 % 0.00 in
21:01 74.0 °F 54.2 °F 30.07 in NNW 4.8 mph 10.4 mph 50 % 0.00 in
21:06 73.9 °F 54.1 °F 30.07 in NNE 5.0 mph 10.0 mph 50 % 0.00 in
21:11 73.8 °F 54.0 °F 30.07 in NNW 6.9 mph 10.4 mph 50 % 0.00 in
21:16 73.7 °F 53.3 °F 30.07 in North 7.3 mph 11.5 mph 49 % 0.00 in
21:21 73.5 °F 53.7 °F 30.07 in NNE 5.1 mph 7.0 mph 50 % 0.00 in
21:26 73.4 °F 54.2 °F 30.08 in North 4.3 mph 9.0 mph 51 % 0.00 in
21:31 73.2 °F 54.5 °F 30.08 in NNE 5.0 mph 8.1 mph 52 % 0.00 in
21:36 73.0 °F 53.8 °F 30.08 in North 7.4 mph 9.0 mph 51 % 0.00 in
21:41 72.7 °F 53.0 °F 30.08 in NNE 3.9 mph 9.2 mph 50 % 0.00 in
21:46 72.6 °F 51.8 °F 30.08 in NNE 7.6 mph 12.7 mph 48 % 0.00 in
21:51 72.4 °F 51.6 °F 30.09 in NNE 6.8 mph 12.0 mph 48 % 0.00 in
21:56 72.3 °F 52.6 °F 30.09 in NNE 5.7 mph 11.5 mph 50 % 0.00 in
22:02 72.1 °F 53.0 °F 30.09 in NNE 4.1 mph 12.7 mph 51 % 0.00 in
22:07 71.9 °F 51.7 °F 30.09 in NNE 7.4 mph 15.0 mph 49 % 0.00 in
22:12 71.8 °F 51.6 °F 30.09 in NNE 6.9 mph 11.5 mph 49 % 0.00 in
22:17 71.6 °F 52.0 °F 30.09 in NNE 4.9 mph 11.5 mph 50 % 0.00 in
22:22 71.5 °F 51.9 °F 30.09 in NE 5.9 mph 10.4 mph 50 % 0.00 in
22:27 71.3 °F 51.7 °F 30.10 in NNE 4.3 mph 8.1 mph 50 % 0.00 in
22:32 71.2 °F 51.1 °F 30.10 in North 5.6 mph 8.1 mph 49 % 0.00 in
22:37 71.0 °F 52.0 °F 30.10 in North 2.0 mph 8.1 mph 51 % 0.00 in
22:42 70.8 °F 51.8 °F 30.11 in NE 4.2 mph 8.1 mph 51 % 0.00 in
22:47 70.6 °F 52.1 °F 30.11 in North 4.0 mph 8.1 mph 52 % 0.00 in
22:52 70.4 °F 52.4 °F 30.11 in NNE 1.8 mph 5.8 mph 53 % 0.00 in
22:58 70.3 °F 51.8 °F 30.11 in North 3.1 mph 6.0 mph 52 % 0.00 in
23:03 70.0 °F 51.6 °F 30.11 in NW 1.9 mph 6.9 mph 52 % 0.00 in
23:08 69.8 °F 51.4 °F 30.12 in NNE 5.0 mph 9.2 mph 52 % 0.00 in
23:13 69.6 °F 52.2 °F 30.12 in NNE 2.6 mph 9.0 mph 54 % 0.00 in
23:18 69.3 °F 51.9 °F 30.11 in NW 4.3 mph 8.1 mph 54 % 0.00 in
23:23 69.1 °F 51.2 °F 30.12 in NNE 6.1 mph 9.2 mph 53 % 0.00 in
23:28 69.0 °F 51.7 °F 30.12 in NNW 5.5 mph 7.0 mph 54 % 0.00 in
23:33 68.9 °F 52.1 °F 30.12 in NNE 3.8 mph 8.1 mph 55 % 0.00 in
23:38 68.7 °F 51.4 °F 30.12 in NNE 5.0 mph 10.4 mph 54 % 0.00 in
23:43 68.6 °F 51.8 °F 30.12 in NE 3.6 mph 6.9 mph 55 % 0.00 in
23:48 68.5 °F 52.2 °F 30.12 in NNW 6.1 mph 7.0 mph 56 % 0.00 in
23:54 68.3 °F 52.0 °F 30.12 in NE 3.1 mph 6.9 mph 56 % 0.00 in
23:59 68.2 °F 51.9 °F 30.13 in NNE 4.8 mph 5.8 mph 56 % 0.00 in
Crab Meadow Weather
Compliments of Weather Underground - 3 mb

Script developed by  Jim McMurry - jmcmurry@mwt.net Adapted for the template by  Wim van der Kuil - Leuven-Template.eu

Recycling: If every American home replaced just one light bulb with an ENERGY STAR qualified bulb, we would save enough energy to light more than 3 million homes for a year, more than $600 million in annual energy costs, and prevent greenhouse gases equivalent to the emissions of more than 800,000 cars.